Time,TemperatureF,DewpointF,PressureIn,WindDirection,WindDirectionDegrees,WindSpeedMPH,WindSpeedGustMPH,Humidity,HourlyPrecipIn,Conditions,Clouds,dailyrainin,SolarRadiationWatts/m^2,SoftwareType,DateUTC
2013-05-22 00:00:00,64.6,63.1,25.94,SSW,194,0.0,0.0,95,0.00,,,0.00,0,Wunderground v.1.15,2013-05-22 06:00:00,
2013-05-22 00:05:00,64.6,62.8,25.94,SSW,194,0.0,0.0,94,0.00,,,0.00,0,Wunderground v.1.15,2013-05-22 06:05:00,
2013-05-22 00:10:00,64.6,63.1,25.94,SSW,194,0.0,0.0,95,0.00,,,0.00,0,Wunderground v.1.15,2013-05-22 06:10:00,
2013-05-22 00:15:00,64.6,62.8,25.94,SSW,194,0.0,0.0,94,0.00,,,0.00,0,Wunderground v.1.15,2013-05-22 06:15:00,
2013-05-22 00:20:00,64.7,63.2,25.93,SSW,194,0.0,0.0,95,0.00,,,0.00,0,Wunderground v.1.15,2013-05-22 06:20:00,
2013-05-22 00:25:00,64.9,63.1,25.93,SSW,194,0.0,0.0,94,0.00,,,0.00,0,Wunderground v.1.15,2013-05-22 06:25:00,
2013-05-22 00:30:00,64.9,63.1,25.93,SSW,194,0.0,0.0,94,0.00,,,0.00,0,Wunderground v.1.15,2013-05-22 06:30:00,
2013-05-22 00:40:00,64.9,63.4,25.92,SSW,194,0.0,0.0,95,0.00,,,0.00,0,Wunderground v.1.15,2013-05-22 06:40:00,
2013-05-22 00:45:00,64.7,63.2,25.92,SSW,194,0.0,0.0,95,0.00,,,0.00,0,Wunderground v.1.15,2013-05-22 06:45:00,
2013-05-22 00:50:00,64.7,63.2,25.92,SSW,194,0.0,0.0,95,0.00,,,0.00,0,Wunderground v.1.15,2013-05-22 06:50:00,
2013-05-22 00:55:00,64.7,63.2,25.92,SSW,194,0.0,0.0,95,0.00,,,0.00,0,Wunderground v.1.15,2013-05-22 06:55:00,
2013-05-22 01:00:00,64.7,63.2,25.91,SSW,194,0.0,0.0,95,0.00,,,0.00,0,Wunderground v.1.15,2013-05-22 07:00:00,
2013-05-22 01:10:00,64.7,63.2,25.91,SSW,194,0.0,0.0,95,0.00,,,0.00,0,Wunderground v.1.15,2013-05-22 07:10:00,
2013-05-22 01:15:00,64.6,63.1,25.91,SSW,194,0.0,0.0,95,0.00,,,0.00,0,Wunderground v.1.15,2013-05-22 07:15:00,
2013-05-22 01:20:00,64.6,63.1,25.91,SSW,194,0.0,0.0,95,0.00,,,0.00,0,Wunderground v.1.15,2013-05-22 07:20:00,
2013-05-22 01:25:00,64.6,63.1,25.91,SSW,194,0.0,0.0,95,0.00,,,0.00,0,Wunderground v.1.15,2013-05-22 07:25:00,
2013-05-22 01:30:00,64.7,63.2,25.91,SSW,194,0.0,0.0,95,0.00,,,0.00,0,Wunderground v.1.15,2013-05-22 07:30:00,
2013-05-22 01:35:00,64.7,63.2,25.91,SSW,194,0.0,0.0,95,0.00,,,0.00,0,Wunderground v.1.15,2013-05-22 07:35:00,
2013-05-22 01:40:00,64.7,62.9,25.91,SSW,194,0.0,0.0,94,0.00,,,0.00,0,Wunderground v.1.15,2013-05-22 07:40:00,
2013-05-22 01:45:00,64.7,62.9,25.91,SSW,194,0.0,0.0,94,0.00,,,0.00,0,Wunderground v.1.15,2013-05-22 07:45:00,
2013-05-22 01:55:00,64.7,62.9,25.90,SSW,194,0.0,0.0,94,0.00,,,0.00,0,Wunderground v.1.15,2013-05-22 07:55:00,
2013-05-22 02:00:00,64.9,63.1,25.90,SSW,194,0.0,0.0,94,0.00,,,0.00,0,Wunderground v.1.15,2013-05-22 08:00:00,
2013-05-22 02:05:00,64.9,63.1,25.90,SSW,194,0.0,0.0,94,0.00,,,0.00,0,Wunderground v.1.15,2013-05-22 08:05:00,
2013-05-22 02:10:00,64.9,63.1,25.89,SSW,194,0.0,0.0,94,0.00,,,0.00,0,Wunderground v.1.15,2013-05-22 08:10:00,
2013-05-22 02:15:00,64.9,63.1,25.89,SSW,194,0.0,0.0,94,0.00,,,0.00,0,Wunderground v.1.15,2013-05-22 08:15:00,
2013-05-22 02:20:00,64.7,62.9,25.89,SSW,194,0.0,0.0,94,0.00,,,0.00,0,Wunderground v.1.15,2013-05-22 08:20:00,
2013-05-22 02:30:00,64.6,62.8,25.88,SSW,194,0.0,0.0,94,0.00,,,0.00,0,Wunderground v.1.15,2013-05-22 08:30:00,
2013-05-22 02:35:00,64.6,62.8,25.88,SSW,194,0.0,0.0,94,0.00,,,0.00,0,Wunderground v.1.15,2013-05-22 08:35:00,
2013-05-22 02:45:00,64.6,62.8,25.88,SSW,194,0.0,0.0,94,0.00,,,0.00,0,Wunderground v.1.15,2013-05-22 08:45:00,
2013-05-22 02:50:00,64.4,62.6,25.88,SSW,194,0.0,0.0,94,0.00,,,0.00,0,Wunderground v.1.15,2013-05-22 08:50:00,
2013-05-22 02:55:00,64.4,62.9,25.88,SSW,194,0.0,0.0,95,0.00,,,0.00,0,Wunderground v.1.15,2013-05-22 08:55:00,
2013-05-22 03:00:00,64.4,62.9,25.88,SSW,194,0.0,0.0,95,0.00,,,0.00,0,Wunderground v.1.15,2013-05-22 09:00:00,
2013-05-22 03:05:00,64.2,62.7,25.88,SSW,194,0.0,0.0,95,0.00,,,0.00,0,Wunderground v.1.15,2013-05-22 09:05:00,
2013-05-22 03:15:00,64.2,62.7,25.88,SSW,194,0.0,0.0,95,0.00,,,0.00,0,Wunderground v.1.15,2013-05-22 09:15:00,
2013-05-22 03:25:00,64.2,62.7,25.88,SSW,194,0.0,0.0,95,0.00,,,0.00,0,Wunderground v.1.15,2013-05-22 09:25:00,
2013-05-22 03:30:00,64.1,62.6,25.89,SSW,194,0.0,0.0,95,0.00,,,0.00,0,Wunderground v.1.15,2013-05-22 09:30:00,
2013-05-22 03:35:00,64.1,62.9,25.89,SSW,194,0.0,0.0,96,0.00,,,0.00,0,Wunderground v.1.15,2013-05-22 09:35:00,
2013-05-22 03:40:00,64.1,62.9,25.89,SSW,194,0.0,0.0,96,0.00,,,0.00,0,Wunderground v.1.15,2013-05-22 09:40:00,
2013-05-22 03:45:00,64.1,62.9,25.89,SSW,194,0.0,0.0,96,0.00,,,0.00,0,Wunderground v.1.15,2013-05-22 09:45:00,
2013-05-22 03:50:00,63.9,62.7,25.89,SSW,194,0.0,0.0,96,0.00,,,0.00,0,Wunderground v.1.15,2013-05-22 09:50:00,
2013-05-22 03:55:00,63.9,62.7,25.89,SSW,194,0.0,0.0,96,0.00,,,0.00,0,Wunderground v.1.15,2013-05-22 09:55:00,
2013-05-22 04:00:00,63.8,62.6,25.89,SSW,194,0.0,0.0,96,0.00,,,0.00,0,Wunderground v.1.15,2013-05-22 10:00:00,
2013-05-22 04:05:00,63.8,62.6,25.89,SSW,194,0.0,0.0,96,0.00,,,0.00,0,Wunderground v.1.15,2013-05-22 10:05:00,
2013-05-22 04:15:00,63.6,62.4,25.90,SSW,194,0.0,0.0,96,0.00,,,0.00,0,Wunderground v.1.15,2013-05-22 10:15:00,
2013-05-22 04:20:00,63.6,62.4,25.90,SSW,194,0.0,0.0,96,0.00,,,0.00,0,Wunderground v.1.15,2013-05-22 10:20:00,
2013-05-22 04:25:00,63.4,62.2,25.90,SSW,194,0.0,0.0,96,0.00,,,0.00,0,Wunderground v.1.15,2013-05-22 10:25:00,
2013-05-22 04:30:00,63.6,62.4,25.90,SSW,194,0.0,0.0,96,0.00,,,0.00,0,Wunderground v.1.15,2013-05-22 10:30:00,
2013-05-22 04:35:00,63.6,62.4,25.90,SSW,194,0.0,0.0,96,0.00,,,0.00,0,Wunderground v.1.15,2013-05-22 10:35:00,
2013-05-22 04:45:00,63.8,62.9,25.90,SSW,194,0.0,0.0,97,0.00,,,0.00,0,Wunderground v.1.15,2013-05-22 10:45:00,
2013-05-22 04:50:00,63.8,62.6,25.90,SSW,194,0.0,0.0,96,0.00,,,0.00,0,Wunderground v.1.15,2013-05-22 10:50:00,
2013-05-22 04:55:00,63.8,62.6,25.90,SSW,194,0.0,0.0,96,0.00,,,0.00,0,Wunderground v.1.15,2013-05-22 10:55:00,
2013-05-22 05:00:00,63.8,62.6,25.90,SSW,194,0.0,0.0,96,0.00,,,0.00,0,Wunderground v.1.15,2013-05-22 11:00:00,
2013-05-22 05:10:00,63.9,63.0,25.90,SSW,194,0.0,0.0,97,0.00,,,0.00,0,Wunderground v.1.15,2013-05-22 11:10:00,
2013-05-22 05:15:00,63.9,62.7,25.90,SSW,194,0.0,0.0,96,0.00,,,0.00,0,Wunderground v.1.15,2013-05-22 11:15:00,
2013-05-22 05:20:00,63.9,62.7,25.91,SSW,194,0.0,0.0,96,0.00,,,0.00,0,Wunderground v.1.15,2013-05-22 11:20:00,
2013-05-22 05:25:00,64.1,62.9,25.91,SSW,194,0.0,0.0,96,0.00,,,0.00,5,Wunderground v.1.15,2013-05-22 11:25:00,
2013-05-22 05:30:00,64.1,63.2,25.91,SSW,194,0.0,0.0,97,0.00,,,0.00,11,Wunderground v.1.15,2013-05-22 11:30:00,
2013-05-22 05:35:00,64.2,63.0,25.91,SSW,194,0.0,0.0,96,0.00,,,0.00,16,Wunderground v.1.15,2013-05-22 11:35:00,
2013-05-22 05:45:00,64.4,63.2,25.92,SSW,194,0.0,0.0,96,0.00,,,0.00,21,Wunderground v.1.15,2013-05-22 11:45:00,
2013-05-22 05:50:00,64.4,63.2,25.92,SSW,194,0.0,0.0,96,0.00,,,0.00,25,Wunderground v.1.15,2013-05-22 11:50:00,
2013-05-22 05:55:00,64.6,63.4,25.92,SSW,194,0.0,0.0,96,0.00,,,0.00,28,Wunderground v.1.15,2013-05-22 11:55:00,
2013-05-22 06:00:00,64.7,63.5,25.92,SSW,194,0.0,0.0,96,0.00,,,0.00,35,Wunderground v.1.15,2013-05-22 12:00:00,
2013-05-22 06:05:00,64.9,63.7,25.92,SSE,165,0.0,2.0,96,0.00,,,0.00,46,Wunderground v.1.15,2013-05-22 12:05:00,
2013-05-22 06:10:00,65.1,63.9,25.92,SSE,165,1.0,1.0,96,0.00,,,0.00,65,Wunderground v.1.15,2013-05-22 12:10:00,
2013-05-22 06:15:00,65.4,64.2,25.92,SSE,165,1.0,1.0,96,0.00,,,0.00,109,Wunderground v.1.15,2013-05-22 12:15:00,
2013-05-22 06:20:00,65.5,64.3,25.92,SSE,165,0.0,0.0,96,0.00,,,0.00,121,Wunderground v.1.15,2013-05-22 12:20:00,
2013-05-22 06:25:00,65.9,64.4,25.92,SSE,165,0.0,1.0,95,0.00,,,0.00,130,Wunderground v.1.15,2013-05-22 12:25:00,
2013-05-22 06:35:00,66.3,63.9,25.92,SE,140,1.0,1.0,92,0.00,,,0.00,183,Wunderground v.1.15,2013-05-22 12:35:00,
2013-05-22 06:40:00,66.8,63.5,25.92,SSE,155,1.0,1.0,89,0.00,,,0.00,316,Wunderground v.1.15,2013-05-22 12:40:00,
2013-05-22 06:45:00,67.5,63.2,25.92,East,91,1.0,1.0,86,0.00,,,0.00,332,Wunderground v.1.15,2013-05-22 12:45:00,
2013-05-22 06:50:00,68.2,63.2,25.93,East,91,0.0,0.0,84,0.00,,,0.00,237,Wunderground v.1.15,2013-05-22 12:50:00,
2013-05-22 06:55:00,68.8,63.1,25.93,East,91,0.0,0.0,82,0.00,,,0.00,352,Wunderground v.1.15,2013-05-22 12:55:00,
2013-05-22 07:00:00,69.8,63.3,25.92,East,91,0.0,0.0,80,0.00,,,0.00,352,Wunderground v.1.15,2013-05-22 13:00:00,
2013-05-22 07:05:00,70.3,62.7,25.92,ENE,71,0.0,2.0,77,0.00,,,0.00,364,Wunderground v.1.15,2013-05-22 13:05:00,
2013-05-22 07:15:00,71.5,62.4,25.93,ENE,70,0.0,1.0,73,0.00,,,0.00,174,Wunderground v.1.15,2013-05-22 13:15:00,
2013-05-22 07:25:00,71.7,63.0,25.93,ENE,70,0.0,1.0,74,0.00,,,0.00,464,Wunderground v.1.15,2013-05-22 13:25:00,
2013-05-22 07:35:00,73.2,62.8,25.93,WNW,298,1.0,1.0,70,0.00,,,0.00,469,Wunderground v.1.15,2013-05-22 13:35:00,
2013-05-22 07:40:00,73.9,62.7,25.93,WNW,298,0.0,0.0,68,0.00,,,0.00,476,Wunderground v.1.15,2013-05-22 13:40:00,
2013-05-22 07:45:00,73.4,62.2,25.93,NW,325,1.0,1.0,68,0.00,,,0.00,476,Wunderground v.1.15,2013-05-22 13:45:00,
2013-05-22 07:50:00,73.4,63.0,25.93,ENE,67,1.0,1.0,70,0.00,,,0.00,540,Wunderground v.1.15,2013-05-22 13:50:00,
2013-05-22 07:55:00,73.6,62.4,25.93,North,355,1.0,1.0,68,0.00,,,0.00,571,Wunderground v.1.15,2013-05-22 13:55:00,
2013-05-22 08:00:00,74.1,62.9,25.94,East,81,1.0,1.0,68,0.00,,,0.00,584,Wunderground v.1.15,2013-05-22 14:00:00,
2013-05-22 08:05:00,75.0,62.9,25.94,East,81,0.0,1.0,66,0.00,,,0.00,606,Wunderground v.1.15,2013-05-22 14:05:00,
2013-05-22 08:15:00,76.2,62.7,25.94,NW,323,0.0,0.0,63,0.00,,,0.00,570,Wunderground v.1.15,2013-05-22 14:15:00,
2013-05-22 08:20:00,76.6,61.7,25.94,West,277,0.0,0.0,60,0.00,,,0.00,362,Wunderground v.1.15,2013-05-22 14:20:00,
2013-05-22 08:25:00,76.7,61.8,25.94,WSW,243,0.0,1.0,60,0.00,,,0.00,283,Wunderground v.1.15,2013-05-22 14:25:00,
2013-05-22 08:30:00,76.6,62.1,25.95,WSW,243,0.0,0.0,61,0.00,,,0.00,276,Wunderground v.1.15,2013-05-22 14:30:00,
2013-05-22 08:35:00,75.9,61.9,25.95,WSW,243,0.0,0.0,62,0.00,,,0.00,246,Wunderground v.1.15,2013-05-22 14:35:00,
2013-05-22 08:40:00,75.0,62.4,25.95,NW,319,1.0,1.0,65,0.00,,,0.00,227,Wunderground v.1.15,2013-05-22 14:40:00,
2013-05-22 08:45:00,75.2,62.6,25.95,NW,316,1.0,1.0,65,0.00,,,0.00,243,Wunderground v.1.15,2013-05-22 14:45:00,
2013-05-22 08:50:00,75.2,62.2,25.95,NW,315,0.0,1.0,64,0.00,,,0.00,251,Wunderground v.1.15,2013-05-22 14:50:00,
2013-05-22 09:00:00,75.7,63.1,25.96,NW,315,0.0,0.0,65,0.00,,,0.00,214,Wunderground v.1.15,2013-05-22 15:00:00,
2013-05-22 09:05:00,75.7,62.7,25.96,NW,315,0.0,0.0,64,0.00,,,0.00,244,Wunderground v.1.15,2013-05-22 15:05:00,
2013-05-22 09:15:00,75.9,62.8,25.96,SW,223,1.0,1.0,64,0.00,,,0.00,311,Wunderground v.1.15,2013-05-22 15:15:00,
2013-05-22 09:20:00,75.9,63.3,25.96,WNW,292,1.0,1.0,65,0.00,,,0.00,297,Wunderground v.1.15,2013-05-22 15:20:00,
2013-05-22 09:25:00,75.9,63.3,25.96,WSW,246,1.0,2.0,65,0.00,,,0.00,343,Wunderground v.1.15,2013-05-22 15:25:00,
2013-05-22 09:30:00,75.9,63.7,25.96,West,269,1.0,2.0,66,0.00,,,0.00,380,Wunderground v.1.15,2013-05-22 15:30:00,
2013-05-22 09:40:00,75.9,63.3,25.96,WSW,248,2.0,2.0,65,0.00,,,0.00,418,Wunderground v.1.15,2013-05-22 15:40:00,
2013-05-22 09:45:00,76.0,63.4,25.96,NW,313,1.0,2.0,65,0.00,,,0.00,404,Wunderground v.1.15,2013-05-22 15:45:00,
2013-05-22 09:50:00,76.2,64.0,25.96,WNW,286,1.0,1.0,66,0.00,,,0.00,410,Wunderground v.1.15,2013-05-22 15:50:00,
2013-05-22 10:00:00,76.4,64.2,25.95,WNW,290,1.0,1.0,66,0.00,,,0.00,448,Wunderground v.1.15,2013-05-22 16:00:00,
2013-05-22 10:05:00,76.4,63.8,25.95,WSW,245,2.0,2.0,65,0.00,,,0.00,485,Wunderground v.1.15,2013-05-22 16:05:00,
2013-05-22 10:10:00,76.6,64.0,25.95,North,5,2.0,3.0,65,0.00,,,0.00,622,Wunderground v.1.15,2013-05-22 16:10:00,
2013-05-22 10:15:00,76.9,64.2,25.95,WSW,249,2.0,5.0,65,0.00,,,0.00,608,Wunderground v.1.15,2013-05-22 16:15:00,
2013-05-22 10:20:00,77.8,63.7,25.95,SW,235,2.0,3.0,62,0.00,,,0.00,455,Wunderground v.1.15,2013-05-22 16:20:00,
2013-05-22 10:30:00,77.8,63.7,25.95,West,266,2.0,2.0,62,0.00,,,0.00,367,Wunderground v.1.15,2013-05-22 16:30:00,
2013-05-22 10:35:00,77.5,63.9,25.95,WNW,286,2.0,4.0,63,0.00,,,0.00,397,Wunderground v.1.15,2013-05-22 16:35:00,
2013-05-22 10:40:00,77.3,63.3,25.94,NW,315,2.0,2.0,62,0.00,,,0.00,434,Wunderground v.1.15,2013-05-22 16:40:00,
2013-05-22 10:45:00,77.3,63.3,25.94,NW,304,1.0,4.0,62,0.00,,,0.00,336,Wunderground v.1.15,2013-05-22 16:45:00,
2013-05-22 10:50:00,77.3,63.3,25.94,WNW,302,2.0,3.0,62,0.00,,,0.00,236,Wunderground v.1.15,2013-05-22 16:50:00,
2013-05-22 10:55:00,76.7,63.2,25.94,West,270,2.0,3.0,63,0.00,,,0.00,264,Wunderground v.1.15,2013-05-22 16:55:00,
2013-05-22 11:00:00,76.4,63.3,25.94,NW,311,2.0,2.0,64,0.00,,,0.00,248,Wunderground v.1.15,2013-05-22 17:00:00,
2013-05-22 11:05:00,76.0,63.8,25.94,West,278,2.0,2.0,66,0.00,,,0.00,357,Wunderground v.1.15,2013-05-22 17:05:00,
2013-05-22 11:15:00,76.2,64.0,25.93,NW,320,1.0,2.0,66,0.00,,,0.00,1106,Wunderground v.1.15,2013-05-22 17:15:00,
2013-05-22 11:20:00,77.1,63.5,25.93,SSW,213,2.0,2.0,63,0.00,,,0.00,1123,Wunderground v.1.15,2013-05-22 17:20:00,
2013-05-22 11:25:00,77.6,63.1,25.93,WSW,241,2.0,2.0,61,0.00,,,0.00,473,Wunderground v.1.15,2013-05-22 17:25:00,
2013-05-22 11:30:00,78.0,63.5,25.93,WSW,252,2.0,2.0,61,0.00,,,0.00,279,Wunderground v.1.15,2013-05-22 17:30:00,
2013-05-22 11:35:00,77.8,63.7,25.93,WSW,246,2.0,2.0,62,0.00,,,0.00,186,Wunderground v.1.15,2013-05-22 17:35:00,
2013-05-22 11:40:00,77.3,63.7,25.93,WSW,242,2.0,2.0,63,0.00,,,0.00,158,Wunderground v.1.15,2013-05-22 17:40:00,
2013-05-22 11:45:00,76.7,63.2,25.93,WSW,244,2.0,2.0,63,0.00,,,0.00,137,Wunderground v.1.15,2013-05-22 17:45:00,
2013-05-22 11:55:00,76.0,64.7,25.92,West,269,1.0,3.0,68,0.00,,,0.00,179,Wunderground v.1.15,2013-05-22 17:55:00,
2013-05-22 12:00:00,75.9,65.4,25.92,WSW,256,1.0,1.0,70,0.00,,,0.00,111,Wunderground v.1.15,2013-05-22 18:00:00,
2013-05-22 12:05:00,75.3,64.0,25.92,West,262,1.0,1.0,68,0.00,,,0.00,58,Wunderground v.1.15,2013-05-22 18:05:00,
2013-05-22 12:10:00,74.8,65.2,25.92,WSW,252,1.0,1.0,72,1.63,,,0.03,37,Wunderground v.1.15,2013-05-22 18:10:00,
2013-05-22 12:15:00,73.9,67.0,25.92,WSW,254,1.0,1.0,79,2.17,,,0.14,37,Wunderground v.1.15,2013-05-22 18:15:00,
2013-05-22 12:20:00,72.6,67.1,25.92,WSW,250,0.0,0.0,83,2.42,,,0.31,32,Wunderground v.1.15,2013-05-22 18:20:00,
2013-05-22 12:25:00,71.4,66.0,25.92,WSW,244,1.0,1.0,83,1.06,,,0.40,23,Wunderground v.1.15,2013-05-22 18:25:00,
2013-05-22 12:30:00,70.5,66.1,25.92,WSW,244,0.0,0.0,86,0.84,,,0.51,56,Wunderground v.1.15,2013-05-22 18:30:00,
2013-05-22 12:35:00,70.0,66.3,25.91,WSW,244,0.0,0.0,88,0.51,,,0.56,107,Wunderground v.1.15,2013-05-22 18:35:00,
2013-05-22 12:40:00,70.0,67.6,25.91,WSW,253,0.0,0.0,92,0.15,,,0.57,81,Wunderground v.1.15,2013-05-22 18:40:00,
2013-05-22 12:50:00,69.7,67.3,25.90,WSW,253,0.0,0.0,92,0.04,,,0.57,160,Wunderground v.1.15,2013-05-22 18:50:00,
2013-05-22 12:55:00,69.7,67.3,25.90,WSW,253,0.0,0.0,92,0.00,,,0.57,181,Wunderground v.1.15,2013-05-22 18:55:00,
2013-05-22 13:00:00,69.7,67.0,25.90,NNE,29,1.0,1.0,91,0.00,,,0.57,288,Wunderground v.1.15,2013-05-22 19:00:00,
2013-05-22 13:05:00,70.0,67.3,25.90,NW,324,1.0,1.0,91,0.00,,,0.57,281,Wunderground v.1.15,2013-05-22 19:05:00,
2013-05-22 13:10:00,70.2,66.1,25.90,NW,315,1.0,1.0,87,0.00,,,0.57,163,Wunderground v.1.15,2013-05-22 19:10:00,
2013-05-22 13:15:00,70.3,65.9,25.90,NW,315,1.0,1.0,86,0.00,,,0.57,158,Wunderground v.1.15,2013-05-22 19:15:00,
2013-05-22 13:25:00,70.8,66.1,25.89,NW,323,1.0,1.0,85,0.00,,,0.57,202,Wunderground v.1.15,2013-05-22 19:25:00,
2013-05-22 13:30:00,71.2,66.8,25.90,NW,324,1.0,2.0,86,0.00,,,0.57,149,Wunderground v.1.15,2013-05-22 19:30:00,
2013-05-22 13:35:00,71.2,66.1,25.90,ENE,59,0.0,2.0,84,0.00,,,0.57,86,Wunderground v.1.15,2013-05-22 19:35:00,
2013-05-22 13:40:00,71.0,65.9,25.89,NW,323,0.0,2.0,84,0.00,,,0.57,70,Wunderground v.1.15,2013-05-22 19:40:00,
2013-05-22 13:45:00,71.0,65.9,25.89,NW,323,0.0,2.0,84,0.00,,,0.57,83,Wunderground v.1.15,2013-05-22 19:45:00,
2013-05-22 13:50:00,70.8,66.1,25.89,West,263,0.0,0.0,85,0.00,,,0.57,81,Wunderground v.1.15,2013-05-22 19:50:00,
2013-05-22 13:55:00,71.0,66.6,25.88,West,263,0.0,0.0,86,0.25,,,0.58,77,Wunderground v.1.15,2013-05-22 19:55:00,
2013-05-22 14:00:00,71.0,66.9,25.89,West,264,0.0,0.0,87,0.13,,,0.59,81,Wunderground v.1.15,2013-05-22 20:00:00,
2013-05-22 14:10:00,71.2,67.8,25.88,West,264,0.0,0.0,89,0.07,,,0.60,91,Wunderground v.1.15,2013-05-22 20:10:00,
2013-05-22 14:15:00,71.0,67.3,25.89,West,267,0.0,0.0,88,0.04,,,0.60,67,Wunderground v.1.15,2013-05-22 20:15:00,
2013-05-22 14:25:00,70.5,66.8,25.89,WNW,284,1.0,2.0,88,0.00,,,0.60,37,Wunderground v.1.15,2013-05-22 20:25:00,
2013-05-22 14:30:00,70.3,66.9,25.88,NNE,23,1.0,4.0,89,0.00,,,0.61,49,Wunderground v.1.15,2013-05-22 20:30:00,
2013-05-22 14:35:00,69.8,66.4,25.88,WNW,290,2.0,4.0,89,0.10,,,0.61,83,Wunderground v.1.15,2013-05-22 20:35:00,
2013-05-22 14:40:00,69.7,67.3,25.88,West,279,2.0,6.0,92,0.09,,,0.62,88,Wunderground v.1.15,2013-05-22 20:40:00,
2013-05-22 14:45:00,68.8,64.1,25.88,NW,322,2.0,6.0,85,0.09,,,0.62,54,Wunderground v.1.15,2013-05-22 20:45:00,
2013-05-22 14:55:00,67.7,63.0,25.88,North,355,3.0,6.0,85,0.33,,,0.68,42,Wunderground v.1.15,2013-05-22 20:55:00,
2013-05-22 15:00:00,67.2,62.9,25.88,NE,42,2.0,2.0,86,0.18,,,0.69,42,Wunderground v.1.15,2013-05-22 21:00:00,
2013-05-22 15:05:00,66.8,62.5,25.88,WNW,299,1.0,2.0,86,0.29,,,0.71,39,Wunderground v.1.15,2013-05-22 21:05:00,
2013-05-22 15:10:00,66.7,62.7,25.88,West,271,1.0,1.0,87,0.13,,,0.72,33,Wunderground v.1.15,2013-05-22 21:10:00,
2013-05-22 15:15:00,66.7,63.0,25.88,West,269,0.0,1.0,88,0.11,,,0.72,25,Wunderground v.1.15,2013-05-22 21:15:00,
2013-05-22 15:20:00,66.3,62.6,25.89,West,269,0.0,0.0,88,0.06,,,0.72,25,Wunderground v.1.15,2013-05-22 21:20:00,
2013-05-22 15:25:00,66.5,63.8,25.89,West,269,0.0,0.0,91,0.04,,,0.72,26,Wunderground v.1.15,2013-05-22 21:25:00,
2013-05-22 15:30:00,66.7,64.6,25.89,West,269,0.0,0.0,93,0.00,,,0.73,26,Wunderground v.1.15,2013-05-22 21:30:00,
2013-05-22 15:35:00,66.8,64.7,25.89,West,269,0.0,0.0,93,0.00,,,0.73,25,Wunderground v.1.15,2013-05-22 21:35:00,
2013-05-22 15:45:00,66.5,64.1,25.89,West,272,0.0,0.0,92,0.12,,,0.75,19,Wunderground v.1.15,2013-05-22 21:45:00,
2013-05-22 15:55:00,66.3,63.6,25.89,West,272,0.0,0.0,91,0.11,,,0.76,14,Wunderground v.1.15,2013-05-22 21:55:00,
2013-05-22 16:00:00,66.2,63.2,25.89,West,272,0.0,0.0,90,0.09,,,0.76,14,Wunderground v.1.15,2013-05-22 22:00:00,
2013-05-22 16:05:00,66.3,64.2,25.89,West,272,0.0,0.0,93,0.05,,,0.76,16,Wunderground v.1.15,2013-05-22 22:05:00,
2013-05-22 16:10:00,66.5,64.7,25.90,West,272,0.0,0.0,94,0.04,,,0.76,16,Wunderground v.1.15,2013-05-22 22:10:00,
2013-05-22 16:15:00,66.7,64.9,25.90,West,272,0.0,0.0,94,0.00,,,0.77,16,Wunderground v.1.15,2013-05-22 22:15:00,
2013-05-22 16:25:00,66.2,63.5,25.90,West,272,0.0,0.0,91,0.08,,,0.78,18,Wunderground v.1.15,2013-05-22 22:25:00,
2013-05-22 16:30:00,66.2,63.8,25.90,West,272,0.0,0.0,92,0.08,,,0.79,18,Wunderground v.1.15,2013-05-22 22:30:00,
2013-05-22 16:35:00,66.2,64.1,25.90,West,272,0.0,0.0,93,0.08,,,0.79,18,Wunderground v.1.15,2013-05-22 22:35:00,
2013-05-22 16:40:00,66.2,64.4,25.90,West,272,0.0,0.0,94,0.05,,,0.79,18,Wunderground v.1.15,2013-05-22 22:40:00,
2013-05-22 16:50:00,66.0,64.2,25.91,West,272,0.0,0.0,94,0.04,,,0.80,12,Wunderground v.1.15,2013-05-22 22:50:00,
2013-05-22 16:55:00,66.0,64.2,25.91,West,272,0.0,0.0,94,0.04,,,0.80,9,Wunderground v.1.15,2013-05-22 22:55:00,
2013-05-22 17:00:00,66.0,64.2,25.91,West,272,0.0,0.0,94,0.00,,,0.80,9,Wunderground v.1.15,2013-05-22 23:00:00,
2013-05-22 17:05:00,66.0,64.2,25.91,West,272,0.0,0.0,94,0.00,,,0.80,11,Wunderground v.1.15,2013-05-22 23:05:00,
2013-05-22 17:10:00,66.0,64.2,25.91,West,272,0.0,0.0,94,0.00,,,0.80,11,Wunderground v.1.15,2013-05-22 23:10:00,
2013-05-22 17:15:00,66.0,64.2,25.91,West,272,0.0,0.0,94,0.07,,,0.81,11,Wunderground v.1.15,2013-05-22 23:15:00,
2013-05-22 17:25:00,66.0,64.2,25.92,West,272,0.0,0.0,94,0.06,,,0.81,7,Wunderground v.1.15,2013-05-22 23:25:00,
2013-05-22 17:30:00,66.0,64.2,25.92,West,272,0.0,0.0,94,0.04,,,0.81,5,Wunderground v.1.15,2013-05-22 23:30:00,
2013-05-22 17:35:00,65.9,63.8,25.92,West,272,0.0,0.0,93,0.00,,,0.81,0,Wunderground v.1.15,2013-05-22 23:35:00,
2013-05-22 17:40:00,65.9,64.1,25.92,West,272,0.0,0.0,94,0.00,,,0.81,0,Wunderground v.1.15,2013-05-22 23:40:00,
2013-05-22 17:45:00,66.0,64.2,25.92,West,272,0.0,0.0,94,0.00,,,0.81,0,Wunderground v.1.15,2013-05-22 23:45:00,
2013-05-22 17:50:00,65.9,64.1,25.92,West,272,0.0,0.0,94,0.00,,,0.81,0,Wunderground v.1.15,2013-05-22 23:50:00,
2013-05-22 17:55:00,66.0,64.2,25.92,West,272,0.0,0.0,94,0.00,,,0.81,0,Wunderground v.1.15,2013-05-22 23:55:00,
2013-05-22 18:00:00,66.2,64.7,25.92,West,272,0.0,0.0,95,0.00,,,0.81,0,Wunderground v.1.15,2013-05-23 00:00:00,
2013-05-22 18:05:00,66.3,64.8,25.92,West,272,0.0,0.0,95,0.00,,,0.81,0,Wunderground v.1.15,2013-05-23 00:05:00,
2013-05-22 18:10:00,66.2,64.4,25.92,West,272,0.0,0.0,94,0.00,,,0.81,0,Wunderground v.1.15,2013-05-23 00:10:00,
2013-05-22 18:15:00,66.0,64.5,25.92,West,272,0.0,0.0,95,0.00,,,0.81,0,Wunderground v.1.15,2013-05-23 00:15:00,
2013-05-22 18:25:00,66.0,64.2,25.92,West,272,0.0,0.0,94,0.00,,,0.81,0,Wunderground v.1.15,2013-05-23 00:25:00,
2013-05-22 18:30:00,65.9,64.1,25.93,West,272,0.0,0.0,94,0.00,,,0.81,0,Wunderground v.1.15,2013-05-23 00:30:00,
2013-05-22 18:35:00,65.9,64.1,25.93,West,272,0.0,0.0,94,0.00,,,0.81,0,Wunderground v.1.15,2013-05-23 00:35:00,
2013-05-22 18:40:00,65.9,64.4,25.93,West,272,0.0,0.0,95,0.00,,,0.81,0,Wunderground v.1.15,2013-05-23 00:40:00,
2013-05-22 18:45:00,66.0,64.5,25.93,West,272,0.0,0.0,95,0.00,,,0.81,0,Wunderground v.1.15,2013-05-23 00:45:00,
2013-05-22 18:55:00,66.2,64.7,25.93,West,272,0.0,0.0,95,0.00,,,0.81,0,Wunderground v.1.15,2013-05-23 00:55:00,
2013-05-22 19:00:00,66.2,64.7,25.93,West,272,0.0,0.0,95,0.00,,,0.81,0,Wunderground v.1.15,2013-05-23 01:00:00,
2013-05-22 19:10:00,66.2,64.7,25.94,West,272,0.0,0.0,95,0.00,,,0.81,0,Wunderground v.1.15,2013-05-23 01:10:00,
2013-05-22 19:15:00,66.0,64.5,25.94,West,272,0.0,0.0,95,0.00,,,0.81,0,Wunderground v.1.15,2013-05-23 01:15:00,
2013-05-22 19:20:00,66.2,65.0,25.94,West,272,0.0,0.0,96,0.00,,,0.81,0,Wunderground v.1.15,2013-05-23 01:20:00,
2013-05-22 19:25:00,66.2,65.0,25.94,West,272,0.0,0.0,96,0.00,,,0.81,0,Wunderground v.1.15,2013-05-23 01:25:00,
2013-05-22 19:30:00,66.2,65.0,25.94,West,272,0.0,0.0,96,0.00,,,0.81,0,Wunderground v.1.15,2013-05-23 01:30:00,
2013-05-22 19:35:00,66.2,65.0,25.94,West,272,0.0,0.0,96,0.00,,,0.81,0,Wunderground v.1.15,2013-05-23 01:35:00,
2013-05-22 19:40:00,66.2,64.7,25.94,West,272,0.0,0.0,95,0.00,,,0.81,0,Wunderground v.1.15,2013-05-23 01:40:00,
2013-05-22 19:50:00,66.0,64.5,25.95,West,272,0.0,0.0,95,0.00,,,0.81,0,Wunderground v.1.15,2013-05-23 01:50:00,
2013-05-22 19:55:00,65.9,64.4,25.95,West,272,0.0,0.0,95,0.00,,,0.81,0,Wunderground v.1.15,2013-05-23 01:55:00,
2013-05-22 20:00:00,66.0,64.5,25.95,West,272,0.0,0.0,95,0.00,,,0.82,0,Wunderground v.1.15,2013-05-23 02:00:00,
2013-05-22 20:05:00,66.0,64.5,25.95,West,272,0.0,0.0,95,0.00,,,0.82,0,Wunderground v.1.15,2013-05-23 02:05:00,
2013-05-22 20:10:00,66.0,64.8,25.95,West,272,0.0,0.0,96,0.00,,,0.82,0,Wunderground v.1.15,2013-05-23 02:10:00,
2013-05-22 20:15:00,66.0,64.5,25.95,West,272,0.0,0.0,95,0.00,,,0.82,0,Wunderground v.1.15,2013-05-23 02:15:00,
2013-05-22 20:20:00,66.0,64.5,25.95,West,272,0.0,0.0,95,0.00,,,0.82,0,Wunderground v.1.15,2013-05-23 02:20:00,
2013-05-22 20:25:00,66.0,64.5,25.95,West,272,0.0,0.0,95,0.00,,,0.82,0,Wunderground v.1.15,2013-05-23 02:25:00,
2013-05-22 20:35:00,66.0,64.5,25.95,West,272,0.0,0.0,95,0.00,,,0.82,0,Wunderground v.1.15,2013-05-23 02:35:00,
2013-05-22 20:40:00,66.0,64.5,25.95,West,272,0.0,0.0,95,0.00,,,0.82,0,Wunderground v.1.15,2013-05-23 02:40:00,
2013-05-22 20:45:00,65.9,64.4,25.96,West,272,0.0,0.0,95,0.00,,,0.82,0,Wunderground v.1.15,2013-05-23 02:45:00,
2013-05-22 20:50:00,65.9,64.4,25.96,West,272,0.0,0.0,95,0.00,,,0.82,0,Wunderground v.1.15,2013-05-23 02:50:00,
2013-05-22 20:55:00,65.7,64.2,25.96,West,272,0.0,0.0,95,0.00,,,0.82,0,Wunderground v.1.15,2013-05-23 02:55:00,
2013-05-22 21:00:00,65.7,64.2,25.96,West,272,0.0,0.0,95,0.00,,,0.82,0,Wunderground v.1.15,2013-05-23 03:00:00,
2013-05-22 21:10:00,65.5,64.0,25.96,West,272,0.0,0.0,95,0.00,,,0.82,0,Wunderground v.1.15,2013-05-23 03:10:00,
2013-05-22 21:15:00,65.5,64.0,25.96,West,272,0.0,0.0,95,0.00,,,0.82,0,Wunderground v.1.15,2013-05-23 03:15:00,
2013-05-22 21:25:00,65.4,63.9,25.96,West,272,0.0,0.0,95,0.00,,,0.82,0,Wunderground v.1.15,2013-05-23 03:25:00,
2013-05-22 21:30:00,65.4,63.9,25.96,West,272,0.0,0.0,95,0.00,,,0.82,0,Wunderground v.1.15,2013-05-23 03:30:00,
2013-05-22 21:35:00,65.4,64.2,25.96,West,272,0.0,0.0,96,0.00,,,0.82,0,Wunderground v.1.15,2013-05-23 03:35:00,
2013-05-22 21:40:00,65.2,64.0,25.96,West,272,0.0,0.0,96,0.00,,,0.82,0,Wunderground v.1.15,2013-05-23 03:40:00,
2013-05-22 21:45:00,65.1,63.9,25.96,West,272,0.0,0.0,96,0.00,,,0.82,0,Wunderground v.1.15,2013-05-23 03:45:00,
2013-05-22 21:55:00,64.7,63.2,25.96,West,272,0.0,0.0,95,0.00,,,0.82,0,Wunderground v.1.15,2013-05-23 03:55:00,
2013-05-22 22:00:00,64.6,63.1,25.96,West,272,0.0,0.0,95,0.00,,,0.82,0,Wunderground v.1.15,2013-05-23 04:00:00,
2013-05-22 22:05:00,64.6,63.1,25.96,West,272,0.0,0.0,95,0.00,,,0.82,0,Wunderground v.1.15,2013-05-23 04:05:00,
2013-05-22 22:10:00,64.6,63.4,25.96,West,272,0.0,0.0,96,0.00,,,0.82,0,Wunderground v.1.15,2013-05-23 04:10:00,
2013-05-22 22:15:00,64.6,63.4,25.95,West,272,0.0,0.0,96,0.00,,,0.82,0,Wunderground v.1.15,2013-05-23 04:15:00,
2013-05-22 22:20:00,64.6,63.4,25.95,West,272,0.0,0.0,96,0.00,,,0.82,0,Wunderground v.1.15,2013-05-23 04:20:00,
2013-05-22 22:25:00,64.6,63.4,25.95,West,272,0.0,0.0,96,0.00,,,0.82,0,Wunderground v.1.15,2013-05-23 04:25:00,
2013-05-22 22:30:00,64.6,63.4,25.95,NE,54,0.0,0.0,96,0.00,,,0.82,0,Wunderground v.1.15,2013-05-23 04:30:00,
2013-05-22 22:36:00,64.6,63.4,25.95,East,79,0.0,0.0,96,0.00,,,0.82,0,Wunderground v.1.15,2013-05-23 04:36:00,
2013-05-22 22:45:00,64.4,63.2,25.95,East,79,0.0,0.0,96,0.00,,,0.82,0,Wunderground v.1.15,2013-05-23 04:45:00,
2013-05-22 22:50:00,64.4,63.2,25.95,East,79,0.0,0.0,96,0.00,,,0.82,0,Wunderground v.1.15,2013-05-23 04:50:00,
2013-05-22 22:55:00,64.2,63.0,25.94,East,79,0.0,0.0,96,0.00,,,0.82,0,Wunderground v.1.15,2013-05-23 04:55:00,
2013-05-22 23:05:00,63.9,62.4,25.94,East,79,0.0,0.0,95,0.00,,,0.82,0,Wunderground v.1.15,2013-05-23 05:05:00,
2013-05-22 23:10:00,63.6,62.1,25.94,East,79,0.0,0.0,95,0.00,,,0.82,0,Wunderground v.1.15,2013-05-23 05:10:00,
2013-05-22 23:15:00,63.4,61.9,25.94,East,79,0.0,0.0,95,0.00,,,0.82,0,Wunderground v.1.15,2013-05-23 05:15:00,
2013-05-22 23:20:00,63.3,61.8,25.94,East,79,0.0,0.0,95,0.00,,,0.82,0,Wunderground v.1.15,2013-05-23 05:20:00,
2013-05-22 23:25:00,63.3,61.8,25.94,East,79,0.0,0.0,95,0.00,,,0.82,0,Wunderground v.1.15,2013-05-23 05:25:00,
2013-05-22 23:30:00,63.3,61.8,25.94,East,79,0.0,0.0,95,0.00,,,0.82,0,Wunderground v.1.15,2013-05-23 05:30:00,
2013-05-22 23:40:00,63.0,61.8,25.94,East,79,0.0,0.0,96,0.00,,,0.82,0,Wunderground v.1.15,2013-05-23 05:40:00,
2013-05-22 23:45:00,63.0,61.8,25.93,East,79,0.0,0.0,96,0.00,,,0.82,0,Wunderground v.1.15,2013-05-23 05:45:00,
2013-05-22 23:50:00,63.0,61.8,25.93,East,79,0.0,0.0,96,0.00,,,0.82,0,Wunderground v.1.15,2013-05-23 05:50:00,
2013-05-22 23:55:00,63.0,61.8,25.93,East,79,0.0,0.0,96,0.00,,,0.82,0,Wunderground v.1.15,2013-05-23 05:55:00,